Grand Junction, CO

2:53 PM MDT on August 20, 2017 (GMT -0600)
Walker

Weather History for KGJT - October, 2011

Change the Weather History Date:

Saturday, October 15, 2011

  Actual Average Record
Temperature  
Mean Temperature 64 °F 54 °F  
Max Temperature 80 °F 67 °F 82 °F (2016)
Min Temperature 47 °F 40 °F 30 °F (1952)
Degree Days  
Heating Degree Days 1 12  
Month to date heating degree days 134 132  
Since 1 July heating degree days 144 206  
Cooling Degree Days 0 0  
Month to date cooling degree days 10 1  
Year to date cooling degree days 1222 1123  
Growing Degree Days 14 (Base 50)    
Moisture  
Dew Point 32 °F    
Average Humidity 36    
Maximum Humidity 54    
Minimum Humidity 17    
Precipitation  
Precipitation 0.00 in 0.04 in 0.69 in (1937)
Month to date precipitation 0.37 0.55  
Year to date precipitation 8.26 7.59  
Snow  
Snow 0.00 in 0.00 in 0.00 in (2015)
Month to date snowfall 0.0 0.1  
Since 1 July snowfall 0.0 0.1  
Since 1 September snowfall 0.0 0.1  
Snow Depth 0.00 in    
Sea Level Pressure  
Sea Level Pressure 30.00 in    
Wind  
Wind Speed 6 mph (ESE)    
Max Wind Speed 16 mph    
Max Gust Speed 21 mph    
Visibility 10 miles    
Events      
T = Trace of Precipitation, MM = Missing Value Source: NWS Daily Summary

Daily Weather History Graph

Daily Weather History Graph

Search for Another Location

Airport or City:

Trip Planner

Search our weather history database for the weather conditions in past years. The results will help you decide how hot, cold, wet, or windy it might be!

Date:

Astronomy

Oct. 15, 2011 Rise Set
Actual Time 7:23 AM MDT 6:35 PM MDT
Civil Twilight 6:56 AM MDT 7:02 PM MDT
Nautical Twilight 6:25 AM MDT 7:33 PM MDT
Astronomical Twilight 5:54 AM MDT 8:04 PM MDT
Moon 8:36 PM MDT (10/15) 10:48 AM MDT (10/15)
Length of Visible Light 12h 05m
Length of Day
11h 12m
Waning Gibbous, 88% of the Moon is Illuminated
Oct 15
Waning Gibbous
Oct 19
Last Quarter
Oct 26
New
Nov 2
First Quarter
Nov 10
Full

Hourly Weather History & Observations

Time (MDT) Temp. Dew Point Humidity Pressure Visibility Wind Dir Wind Speed Gust Speed Precip Events Conditions
12:53 AM 57.0 °F 30.0 °F 36% 29.99 in 10.0 mi ESE 11.5 mph - N/A   Clear
1:53 AM 54.0 °F 30.9 °F 41% 30.00 in 10.0 mi ESE 10.4 mph - N/A   Clear
2:53 AM 54.0 °F 30.9 °F 41% 30.00 in 10.0 mi ESE 15.0 mph - N/A   Clear
3:53 AM 51.1 °F 32.0 °F 48% 30.01 in 10.0 mi ESE 11.5 mph - N/A   Clear
4:53 AM 50.0 °F 32.0 °F 50% 30.01 in 10.0 mi East 11.5 mph - N/A   Clear
5:53 AM 50.0 °F 32.0 °F 50% 30.02 in 10.0 mi East 15.0 mph - N/A   Clear
6:53 AM 48.2 °F 32.0 °F 54% 30.17 in 10.0 mi ESE 15.0 mph - N/A   Clear
7:53 AM 48.9 °F 32.0 °F 52% 30.07 in 10.0 mi ESE 11.5 mph - N/A   Clear
8:53 AM 52.0 °F 30.9 °F 45% 30.09 in 10.0 mi SSE 5.8 mph - N/A   Clear
10:53 AM 64.4 °F 32.0 °F 30% 30.18 in 10.0 mi SSE 8.1 mph - N/A   Clear
11:53 AM 69.1 °F 32.0 °F 25% 30.04 in 10.0 mi Calm Calm - N/A   Clear
12:53 PM 72.0 °F 30.9 °F 22% 29.99 in 10.0 mi Calm Calm - N/A   Clear
1:53 PM 75.9 °F 32.0 °F 20% 29.95 in 10.0 mi WNW 3.5 mph - N/A   Clear
2:53 PM 78.1 °F 32.0 °F 19% 29.92 in 10.0 mi WSW 3.5 mph - N/A   Clear
3:53 PM 79.0 °F 30.0 °F 17% 29.91 in 10.0 mi NW 4.6 mph - N/A   Clear
4:53 PM 78.1 °F 30.9 °F 18% 29.90 in 10.0 mi NW 8.1 mph - N/A   Clear
5:53 PM 78.1 °F 30.0 °F 17% 29.88 in 10.0 mi Calm Calm - N/A   Clear
6:53 PM 70.0 °F 35.1 °F 28% 29.91 in 10.0 mi Calm Calm - N/A   Clear
7:53 PM 60.8 °F 30.2 °F 31% 30.04 in 10.0 mi East 4.6 mph - N/A   Clear
8:53 PM 64.9 °F 33.1 °F 31% 29.93 in 10.0 mi East 5.8 mph - N/A   Clear
9:53 PM 61.0 °F 32.0 °F 34% 29.92 in 10.0 mi East 4.6 mph - N/A   Clear
10:53 PM 53.1 °F 32.0 °F 45% 29.94 in 10.0 mi Calm Calm - N/A   Clear
11:53 PM 57.2 °F 30.2 °F 36% 30.07 in 10.0 mi Calm Calm - N/A   Clear